Location: *
(60.1759°S, 155.0663°W)
Time: 15:29:48
(UTC+00:00)

ALOS - Pass Details

Date: 17 September 2019
Orbit: 683 x 686 km, 97.8° (Epoch: 20 October)

Event Time Altitude Azimuth Distance (km) Brightness Sun altitude
Rises 14:47:00 0° 13° (NNE) 3,061 5.6 -12.7°
Reaches altitude 10° 14:49:14 10° 11° (N) 2,152 4.8 -12.4°
Maximum altitude 14:53:58 74° 285° (WNW) 731 2.2 -11.8°
Drops below altitude 10° 14:58:45 10° 199° (SSW) 2,177 4.8 -11.3°
Sets 15:01:01 0° 196° (SSW) 3,101 5.6 -11.0°
